Facebook Twitter

Wetterstation Kufstein

aktuelles Wetter
  Temperatur Wetter Niederschlag Luftdruck Wind
Do, 20:00 Uhr 14° - 0 mm 996 hPa 7 km/h SW
Do, 19:00 Uhr 14° - 0 mm 996.1 hPa 4 km/h SW
Do, 18:00 Uhr 15° - 0 mm 996.1 hPa 7 km/h SW
Do, 17:00 Uhr 15° - 0 mm 996.9 hPa 7 km/h SW
Do, 16:00 Uhr 15° - 0 mm 996.7 hPa 7 km/h SW
Do, 15:00 Uhr 16° - 0 mm 997.3 hPa 7 km/h W
Do, 14:00 Uhr 16° - 0 mm 999.2 hPa 7 km/h W
Do, 13:00 Uhr 14° - 0 mm 1001.2 hPa 4 km/h W
Do, 12:00 Uhr 11° - 0 mm 1004.1 hPa 4 km/h O
Do, 11:00 Uhr 9° - 0 mm 1005.6 hPa 4 km/h SW
Do, 10:00 Uhr 8° - 0 mm 1006 hPa 4 km/h W
Do, 09:00 Uhr 7° - 0 mm 1006.7 hPa 4 km/h W
Do, 08:00 Uhr 6° - 0 mm 1007.6 hPa 4 km/h W
Do, 07:00 Uhr 6° bedeckt 0.1 mm 1008.3 hPa 4 km/h W
Do, 06:00 Uhr 6° - 0 mm 1008.9 hPa 14 km/h W
Do, 05:00 Uhr 5° - 0.1 mm 1010.6 hPa 11 km/h W
Do, 04:00 Uhr 5° - 0 mm 1011.5 hPa 7 km/h W
Do, 03:00 Uhr 5° - 0 mm 1012.8 hPa 4 km/h SW
Do, 02:00 Uhr 5° - 0 mm 1013.8 hPa 0 km/h SW
Do, 01:00 Uhr 5° - 0 mm 1015 hPa 4 km/h W

Alle Zeitangaben MEZ